SPACEBEE-7

Last updated on Sun Dec 14 2025 00:03:50 GMT+0000 (Coordinated Universal Time)

1 43816U 18099BL 25347.16581745 .00129773 00000+0 16702-2 0 9993 2 43816 97.4716 62.8571 0003154 163.3154 196.8206 15.58610469385590
UTC large
Height (km)
Speed (km/s)
/
Latitude / Longitude
Inclination (degrees)
Orbital Period (minutes)
Azimuth
Elevation
Range (km)
Doppler Factor

Next 0 passes for location: London (51.5072 / 0.1276)

Sorry there are no passes over London.